Location: Siloam Springs
(36.1881°N, 94.5403°W)
Time: 16:05:30
(UTC-05:00)

RS-15 - Pass Details

Date: 04 June 2024
Orbit: 1896 x 2148 km, 64.8° (Epoch: 19 June)

Event Time Altitude Azimuth Distance (km) Brightness Sun altitude
Rises 22:57:20 0° 329° (NNW) 5,351 11.8 -22.6°
Reaches altitude 10° 23:00:38 10° 330° (NNW) 4,329 11.0 -23.0°
Maximum altitude 23:11:42 88° 62° (ENE) 1,902 7.8 -24.2°
Enters shadow 23:16:56 38° 150° (SSE) 2,656 8.2 -24.8°
